Tracking 35274 objects as of 12-Sep-2026
HD Live streaming from Space Station
objects crossing your sky now

BREEZE-M DEB

Track BREEZE-M DEB now!
10-day predictions


NORAD ID: 38626
Int'l Code: 2008-011BZ
Launch date: March 14, 2008
Source: Commonwealth of Independent States (former USSR) (CIS)
Launch site: TYURATAM MISSILE AND SPACE COMPLEX (TTMTR)

Note: This is SATELLITE DEBRIS
Your satellite tracking list
Your tracking list is empty




NASA's NSSDC Master Catalog

Two Line Element Set (TLE):
1 38626U 08011BZ  13076.55339785 +.00008929 +00000-0 +12319-1 0  9992
2 38626 048.6335 212.5855 6542740 230.2728 050.6763 03.16643322015144
Source of the keplerian elements: AFSPC